FW0246 Weather Reports


Display with metric or nautical units.
time (UTC)temp
F
wind
direction
speed
MPH
gust
MPH
rain 1hr
in
rain 24hr
in
rain mn
in
humidity
%
barometer
mb
20260506111803 53 86 1.0 3.0 0.00 0.43 0.08 89 1007.2
20260506110903 53 80 0.0 2.0 0.00 0.43 0.08 90 1007.2
20260506110003 53 63 1.0 3.0 0.00 0.43 0.08 90 1007.0
20260506105403 53 37 2.0 4.0 0.00 0.43 0.08 89 1006.9
20260506104503 53 302 1.0 4.0 0.00 0.43 0.08 88 1007.0
20260506103603 53 287 1.0 6.0 0.00 0.43 0.08 88 1006.9
20260506102917 54 14 1.0 6.0 0.00 0.43 0.08 90 1006.9
20260506102016 53 57 2.0 9.0 0.00 0.43 0.08 91 1006.8
20260506100903 52 70 2.0 4.0 0.00 0.43 0.08 92 1006.7
20260506100003 52 331 1.0 4.0 0.00 0.43 0.08 92 1006.8
20260506095403 52 248 1.0 8.0 0.00 0.43 0.08 92 1006.8
20260506094503 52 235 2.0 5.0 0.00 0.43 0.08 92 1006.7
20260506093603 52 261 2.0 7.0 0.00 0.43 0.08 92 1006.6
20260506092703 52 277 1.0 5.0 0.00 0.43 0.08 92 1006.5
20260506091803 52 253 2.0 10.0 0.00 0.43 0.08 91 1006.4
20260506090903 53 217 2.0 7.0 0.00 0.43 0.08 91 1006.3
20260506090003 53 254 1.0 4.0 0.00 0.43 0.08 91 1006.1
20260506085403 54 274 2.0 7.0 0.00 0.43 0.08 93 1006.1
20260506084503 53 249 1.0 3.0 0.00 0.43 0.08 94 1006.0
20260506083603 53 308 1.0 3.0 0.00 0.43 0.08 94 1005.9
20260506082703 53 60 1.0 3.0 0.00 0.43 0.08 95 1005.9
20260506081803 52 242 1.0 5.0 0.00 0.43 0.08 95 1005.9
20260506080903 52 234 1.0 5.0 0.00 0.43 0.08 95 1005.8
20260506072703 52 249 1.0 4.0 0.00 0.43 0.08 96 1005.6
20260506071804 52 241 1.0 4.0 0.01 0.43 0.08 97 1005.6
20260506070903 52 238 2.0 6.0 0.01 0.43 0.08 96 1005.6
20260506062019 51 75 1.0 3.0 0.00 0.42 0.07 97 1005.3
20260506060903 51 270 1.0 3.0 0.00 0.42 0.07 96 1005.2
20260506050903 52 214 0.0 3.0 0.00 0.42 0.07 97 1005.0
20260506044503 52 0 0.0 0.0 0.00 0.42 0.07 97 1004.9
20260506043603 52 266 1.0 3.0 0.00 0.42 0.07 97 1004.9
20260506042703 52 269 2.0 4.0 0.01 0.42 0.07 97 1004.9
20260506042018 52 272 2.0 7.0 0.01 0.42 0.07 97 1005.0
20260506040003 52 205 0.0 1.0 0.01 0.42 0.07 98 1005.0
20260506035616 52 164 0.0 3.0 0.01 0.42 0.07 98 1004.9
20260506034717 52 300 0.0 2.0 0.01 0.42 0.07 98 1005.0
20260506033603 53 0 0.0 1.0 0.01 0.42 0.07 98 1005.1
20260506032703 53 0 0.0 0.0 0.00 0.41 0.06 98 1005.1
20260506031803 53 282 0.0 3.0 0.00 0.41 0.06 98 1005.1
20260506030903 53 205 0.0 2.0 0.00 0.41 0.06 98 1005.0
20260506025403 53 204 0.0 3.0 0.00 0.41 0.06 98 1005.2
20260506024503 53 319 0.0 3.0 0.00 0.41 0.06 98 1005.1
20260506023603 53 312 0.0 3.0 0.00 0.41 0.06 98 1005.2
20260506021803 53 202 0.0 2.0 0.02 0.41 0.06 98 1005.2
20260506020904 53 210 0.0 1.0 0.02 0.41 0.06 98 1005.2
20260506020003 53 201 0.0 4.0 0.02 0.41 0.06 98 1005.2
20260506015403 53 190 0.0 2.0 0.02 0.41 0.06 98 1005.3
20260506014503 54 159 0.0 1.0 0.02 0.41 0.06 98 1005.4
20260506013603 54 159 0.0 4.0 0.02 0.41 0.06 98 1005.6
20260506012703 54 234 0.0 2.0 0.02 0.40 0.06 98 1005.6
20260506011803 54 0 0.0 0.0 0.02 0.39 0.05 98 1005.7
20260506010903 54 0 0.0 0.0 0.02 0.39 0.05 98 1005.7
20260506010003 53 0 0.0 0.0 0.02 0.39 0.04 98 1005.7
20260506005619 53 0 0.0 0.0 0.02 0.39 0.04 98 1005.7
20260506004504 53 0 0.0 0.0 0.02 0.39 0.04 98 1005.7
20260506003603 53 0 0.0 0.0 0.02 0.39 0.04 98 1005.8
20260506002703 53 0 0.0 0.0 0.02 0.39 0.04 98 1005.9
20260506002016 53 234 0.0 1.0 0.00 0.37 0.02 98 1005.9
20260506000903 53 0 0.0 0.0 0.00 0.37 0.02 98 1006.1
20260506000003 53 234 0.0 1.0 0.00 0.37 0.02 98 1006.1
20260505235619 53 234 0.0 1.0 0.00 0.37 0.02 98 1006.1
20260505234503 53 234 0.0 1.0 0.00 0.37 0.02 98 1006.3
20260505233603 53 0 0.0 0.0 0.00 0.37 0.02 98 1006.4
20260505232703 53 0 0.0 0.0 0.01 0.37 0.02 98 1006.3
20260505231803 53 0 0.0 0.0 0.01 0.37 0.02 98 1006.5
20260505230903 53 0 0.0 0.0 0.01 0.37 0.02 98 1006.5
20260505230003 53 0 0.0 0.0 0.02 0.37 0.02 98 1006.5
20260505225618 53 0 0.0 0.0 0.03 0.37 0.02 97 1006.5
20260505224503 53 0 0.0 0.0 0.03 0.37 0.02 97 1006.8
20260505223817 53 0 0.0 0.0 0.03 0.37 0.02 97 1006.7
20260505222703 53 0 0.0 0.0 0.03 0.36 0.02 97 1006.8
20260505221803 53 0 0.0 0.0 0.03 0.36 0.02 97 1006.8
20260505220903 53 0 0.0 0.0 0.04 0.36 0.02 97 1006.8
20260505220004 54 0 0.0 0.0 0.02 0.35 0.00 97 1006.9
20260505215403 54 0 0.0 0.0 0.02 0.34 0.34 97 1007.0
20260505214503 54 0 0.0 0.0 0.02 0.34 0.34 97 1007.0
20260505213816 54 0 0.0 0.0 0.03 0.34 0.34 97 1007.0
20260505212703 54 0 0.0 0.0 0.02 0.33 0.33 97 1007.1
20260505211803 54 0 0.0 0.0 0.02 0.33 0.33 97 1007.1
20260505210904 54 0 0.0 0.0 0.02 0.32 0.32 97 1007.3
20260505210003 54 0 0.0 0.0 0.02 0.32 0.32 97 1007.3
20260505205403 54 234 0.0 1.0 0.02 0.32 0.32 97 1007.3
20260505204717 54 234 0.0 1.0 0.02 0.31 0.31 97 1007.3
20260505203603 54 0 0.0 0.0 0.02 0.31 0.31 97 1007.5
20260505202919 54 0 0.0 0.0 0.02 0.31 0.31 97 1007.3
20260505201803 54 0 0.0 0.0 0.02 0.31 0.31 97 1007.4
20260505201118 54 234 0.0 1.0 0.02 0.30 0.30 97 1007.3
20260505200003 54 0 0.0 0.0 0.02 0.30 0.30 97 1007.3
20260505195617 54 0 0.0 0.0 0.02 0.30 0.30 97 1007.3
20260505194503 54 0 0.0 0.0 0.02 0.30 0.30 97 1007.2
20260505193603 55 0 0.0 0.0 0.02 0.29 0.29 97 1007.1
20260505192703 55 0 0.0 0.0 0.02 0.29 0.29 97 1007.0
20260505191803 55 0 0.0 0.0 0.01 0.28 0.28 96 1007.0
20260505190903 55 0 0.0 0.0 0.02 0.28 0.28 96 1007.0
20260505190003 55 0 0.0 0.0 0.02 0.28 0.28 96 1007.0
20260505185403 55 0 0.0 0.0 0.02 0.28 0.28 96 1007.0
20260505184503 55 0 0.0 0.0 0.01 0.28 0.28 96 1007.0
20260505183819 55 0 0.0 0.0 0.02 0.28 0.28 96 1007.1
20260505182703 55 0 0.0 0.0 0.02 0.28 0.28 96 1007.1
20260505181803 55 0 0.0 0.0 0.03 0.28 0.28 96 1007.0
20260505180903 56 0 0.0 0.0 0.03 0.27 0.27 96 1007.2
20260505180003 56 0 0.0 0.0 0.04 0.27 0.27 96 1007.1
20260505175403 56 0 0.0 0.0 0.04 0.27 0.27 96 1007.1
20260505174503 56 0 0.0 0.0 0.04 0.27 0.27 96 1007.1
20260505173603 56 0 0.0 0.0 0.04 0.26 0.26 96 1007.2
20260505172703 56 0 0.0 0.0 0.05 0.26 0.26 95 1007.2
20260505172018 56 0 0.0 0.0 0.03 0.24 0.24 95 1007.1
20260505170903 56 0 0.0 0.0 0.02 0.24 0.24 95 1007.2
20260505170003 56 234 0.0 2.0 0.02 0.24 0.23 95 1007.3
20260505165403 56 234 0.0 2.0 0.02 0.24 0.23 95 1007.4
20260505164504 56 234 0.0 2.0 0.02 0.24 0.23 95 1007.4
20260505163603 56 234 0.0 2.0 0.01 0.24 0.22 94 1007.4
20260505162703 57 0 0.0 0.0 0.00 0.24 0.21 94 1007.5
20260505161803 57 0 0.0 0.0 0.01 0.24 0.21 93 1007.5
20260505160903 57 0 0.0 0.0 0.01 0.24 0.21 94 1007.5
20260505152704 57 229 0.0 1.0 0.02 0.24 0.21 94 1007.8
20260505151803 56 229 0.0 2.0 0.02 0.23 0.20 94 1007.8
20260505150903 56 229 0.0 2.0 0.03 0.23 0.20 93 1007.9
20260505140219 57 278 1.0 7.0 0.08 0.19 0.17 94 1008.0
20260505124718 60 243 0.0 1.0 0.06 0.10 0.06 87 1008.2
20260505122703 61 0 0.0 0.0 0.00 0.04 0.00 82 1008.0
20260505112703 62 0 0.0 0.0 0.00 0.04 0.00 80 1008.3